Kiana, AK

7:37 PM AKST on December 02, 2016 (GMT -0900)
Baker Memorial

Weather History for PAIK - May, 2012

Change the Weather History Date:

Sunday, May 6, 2012

  Actual Average (PAOT) Record (PAOT)
Temperature  
Mean Temperature 26 °F 27 °F  
Max Temperature 30 °F 34 °F 51 °F (1940)
Min Temperature 12 °F 21 °F -12 °F (1949)
Degree Days  
Heating Degree Days 40 38  
Month to date heating degree days 236  
Since 1 July heating degree days 14016  
Cooling Degree Days 0    
Month to date cooling degree days  
Year to date cooling degree days  
Moisture  
Dew Point 18 °F    
Average Humidity 71    
Maximum Humidity 92    
Minimum Humidity 47    
Precipitation  
Precipitation 0.00 in 0.01 in 0.44 in (2004)
Month to date precipitation 0.09  
Year to date precipitation 2.35  
Snow  
Snow 0.00 in 0.10 in 3.50 in (1984)
Month to date snowfall 0.5  
Since 1 July snowfall 59.1  
Snow Depth -    
Sea Level Pressure  
Sea Level Pressure 30.11 in    
Wind  
Wind Speed 3 mph (SSW)    
Max Wind Speed 9 mph    
Max Gust Speed -    
Visibility 10 miles    
Events      
T = Trace of Precipitation, MM = Missing Value Source: NWS Daily Summary

Daily Weather History Graph

Daily Weather History Graph

Search for Another Location

Airport or City:

Trip Planner

Search our weather history database for the weather conditions in past years. The results will help you decide how hot, cold, wet, or windy it might be!

Date:

Astronomy

May. 06, 2012 Rise Set
Actual Time 5:25 AM AKDT 11:54 PM AKDT
Civil Twilight 3:16 AM AKDT 2:24 AM AKDT
Nautical Twilight Sun does not rise Sun does not rise
Astronomical Twilight Sun does not rise Sun does not rise
Moon 12:26 AM AKDT (5/6) 5:11 AM AKDT (5/6)
Length of Visible Light 23h 07m
Length of Day
18h 29m
Full, 99% of the Moon is Illuminated
May 6
Full
May 12
Last Quarter
May 20
New
May 28
First Quarter
Jun 4
Full

Hourly Weather History & Observations

Time (AKDT) Temp. Windchill Dew Point Humidity Pressure Visibility Wind Dir Wind Speed Gust Speed Precip Events Conditions
12:01 AM 19.9 °F 13.4 °F 17.1 °F 89% 30.21 in 10.0 mi SSW 4.6 mph - N/A   Clear
1:01 AM 18.0 °F - 15.1 °F 88% 30.21 in 10.0 mi Calm Calm - N/A   Clear
2:01 AM 16.0 °F - 14.0 °F 92% 30.20 in 10.0 mi Calm Calm - N/A   Clear
3:01 AM 14.0 °F - 12.0 °F 92% 30.20 in 10.0 mi Calm Calm - N/A   Clear
4:01 AM 15.1 °F - 12.0 °F 88% 30.19 in 10.0 mi Calm Calm - N/A   Clear
5:01 AM 15.1 °F - 12.9 °F 91% 30.18 in 10.0 mi Calm Calm - N/A   Clear
6:01 AM 12.0 °F - 9.0 °F 88% 30.17 in 10.0 mi Calm Calm - N/A   Clear
7:01 AM 12.9 °F - 10.9 °F 92% 30.17 in 10.0 mi Calm Calm - N/A   Clear
8:01 AM 17.1 °F - 14.0 °F 88% 30.16 in 10.0 mi Calm Calm - N/A   Overcast
9:01 AM 18.0 °F - 15.1 °F 88% 30.15 in 10.0 mi Calm Calm - N/A   Mostly Cloudy
10:01 AM 24.1 °F 19.7 °F 18.0 °F 77% 30.14 in 10.0 mi Variable 3.5 mph - N/A   Mostly Cloudy
11:01 AM 30.9 °F 22.8 °F 18.0 °F 59% 30.13 in 10.0 mi North 9.2 mph - N/A   Overcast
12:01 PM 33.1 °F 26.9 °F 17.1 °F 52% 30.11 in 10.0 mi North 6.9 mph - N/A   Overcast
1:01 PM 34.0 °F 28.0 °F 18.0 °F 52% 30.10 in 10.0 mi North 6.9 mph - N/A   Scattered Clouds
2:01 PM 36.0 °F 33.3 °F 19.0 °F 50% 30.08 in 10.0 mi North 3.5 mph - N/A   Overcast
3:01 PM 37.9 °F 35.5 °F 19.9 °F 48% 30.06 in 10.0 mi SSW 3.5 mph - N/A   Mostly Cloudy
4:01 PM 39.9 °F 37.8 °F 21.0 °F 47% 30.05 in 10.0 mi South 3.5 mph - N/A   Scattered Clouds
5:01 PM 39.0 °F 33.4 °F 23.0 °F 53% 30.03 in 10.0 mi South 8.1 mph - N/A   Scattered Clouds
6:01 PM 37.9 °F 32.7 °F 24.1 °F 57% 30.02 in 10.0 mi SSW 6.9 mph - N/A   Partly Cloudy
7:01 PM 39.0 °F 34.8 °F 24.1 °F 55% 30.01 in 10.0 mi SSW 5.8 mph - N/A   Partly Cloudy
8:01 PM 37.9 °F 33.5 °F 24.1 °F 57% 30.00 in 10.0 mi SSW 5.8 mph - N/A   Clear
9:01 PM 37.0 °F 33.3 °F 26.1 °F 65% 30.00 in 10.0 mi South 4.6 mph - N/A   Clear
10:01 PM 34.0 °F - 25.0 °F 70% 30.00 in 10.0 mi Calm Calm - N/A   Clear
11:01 PM 32.0 °F - 25.0 °F 75% 30.00 in 10.0 mi Calm Calm - N/A   Clear